Regional Weather Roundup
Issued by NWS

Home | Current Version | Previous Version | Graphics & Text | Print | Product List | Glossary On
Versions: 1 2 3 4 5 6 7 8 9 10 11 12 13 14 15 16 17 18 19 20 21 22 23 24 25 26 27 28 29 30 31 32 33 34 35 36 37 38 39 40 41 42 43 44 45 46 47 48 49 50
000
ASUS43 KOAX 231802
RWRNE

WEATHER ROUNDUP FOR NEBRASKA
NATIONAL WEATHER SERVICE OMAHA NE
100 PM CDT TUE MAY 23 2017

NOTES: SATELLITE DATA IS BEING USED TO AUGMENT CLOUD COVER ABOVE
       12000 FEET.
       "FAIR" INDICATES FEW OR NO CLOUDS BELOW 12,000 FEET WITH NO
       SIGNIFICANT WEATHER AND/OR OBSTRUCTIONS TO VISIBILITY.

  * THESE STATIONS DO NOT REPORT WEATHER SUCH AS RAIN...SNOW OR FOG.

NEZ001>004-019>022-054>056-231900-
NEBRASKA PANHANDLE

CITY           SKY/WX    TMP DP  RH WIND       PRES   REMARKS
SCOTTSBLUFF    CLOUDY    59  35  40 NW17      30.12F
6HR MIN TEMP:  38; 6HR MAX TEMP:  60;

ALLIANCE       MOSUNNY   56  38  50 N17G29    30.11F
6HR MIN TEMP:  35; 6HR MAX TEMP:  57;

CHADRON        MOSUNNY   59  39  47 N13G23    30.11F
6HR MIN TEMP:  44; 6HR MAX TEMP:  60;

GORDON         CLOUDY    55  35  47 N22       30.09F
6HR MIN TEMP:  45; 6HR MAX TEMP:  56; 6HR PCP:  0.01;

KIMBALL        CLOUDY    55  34  45 N20       30.16S
SIDNEY         CLOUDY    53  37  54 N21G28    30.13S
6HR MIN TEMP:  36; 6HR MAX TEMP:  56;

$$

NEZ057>060-069>072-079>082-231900-
SOUTHWEST NEBRASKA

CITY           SKY/WX    TMP DP  RH WIND       PRES   REMARKS
NORTH PLATTE   CLOUDY    55  37  50 NW18G26   30.03F
6HR MIN TEMP:  45; 6HR MAX TEMP:  60;

IMPERIAL       CLOUDY    59  36  42 NW24G32   30.07F
6HR MIN TEMP:  45; 6HR MAX TEMP:  60;

LEXINGTON      CLOUDY    57  41  56 N24       30.01S
MCCOOK         CLOUDY    61  35  37 N30G38    30.02F
6HR MIN TEMP:  42; 6HR MAX TEMP:  65;

OGALLALA       PTSUNNY   60  36  41 NW23G35   30.08F
$$

NEZ005>010-023>029-035>040-094-231900-
NORTH CENTRAL NEBRASKA

CITY           SKY/WX    TMP DP  RH WIND       PRES   REMARKS
VALENTINE      CLOUDY    54  35  48 N20G31    30.03F
6HR MIN TEMP:  48; 6HR MAX TEMP:  56;

AINSWORTH      CLOUDY    49  42  78 N14G20    30.02S
BROKEN BOW     CLOUDY    52  38  58 N18G28    30.00S
6HR MIN TEMP:  48; 6HR MAX TEMP:  57; 6HR PCP: TRACE;

O`NEILL        CLOUDY    51  40  65 N15G24    29.97S
ORD            CLOUDY    52  42  69 NW18G24   29.97S
6HR MIN TEMP:  47; 6HR MAX TEMP:  55; 6HR PCP: TRACE;

$$

NEZ041-046>049-061>064-073>077-083>087-231900-
SOUTH CENTRAL NEBRASKA

CITY           SKY/WX    TMP DP  RH WIND       PRES   REMARKS
GRAND ISLAND   CLOUDY    56  40  55 N24G33    29.96S
6HR MIN TEMP:  47; 6HR MAX TEMP:  59;

AURORA         CLOUDY    54  40  59 N22       29.95S
HASTINGS       CLOUDY    57  41  55 N24G33    29.96S
6HR MIN TEMP:  47; 6HR MAX TEMP:  60;

HEBRON         CLOUDY    60  42  52 N21G30    29.91F
HOLDREGE       CLOUDY    55  39  54 N20G26    30.00S
KEARNEY *      CLOUDY    55  37  50 NW17G24   29.99S
$$

NEZ011>018-030>034-042>045-231900-
NORTHEAST NEBRASKA

CITY           SKY/WX    TMP DP  RH WIND       PRES   REMARKS
NORFOLK        CLOUDY    53  42  66 N20G26    29.90F
6HR MIN TEMP:  47; 6HR MAX TEMP:  55; 6HR PCP: TRACE;

ALBION         CLOUDY    56  41  57 N17G24    29.94F
BLAIR          CLOUDY    56  44  63 NW10G18   29.86F
FREMONT        DRIZZLE   54  45  71 NW21      29.90S
TEKAMAH        CLOUDY    56  44  64 NW15      29.87F
6HR MIN TEMP:  48; 6HR MAX TEMP:  59; 6HR PCP: TRACE;

$$

NEZ050>053-065>068-078-088>093-231900-
SOUTHEAST NEBRASKA

CITY           SKY/WX    TMP DP  RH WIND       PRES   REMARKS
LINCOLN        CLOUDY    56  45  66 N9        29.90F
6HR MIN TEMP:  50; 6HR MAX TEMP:  59;

OMAHA EPPLEY   CLOUDY    58  44  60 NW13      29.86F
6HR MIN TEMP:  50; 6HR MAX TEMP:  60; 6HR PCP: TRACE;

BEATRICE         N/A     61  47  59 W7        29.88F
FALLS CITY     PTSUNNY   64  46  52 N13       29.86F
6HR MIN TEMP:  51; 6HR MAX TEMP:  64;

NEBRASKA CITY  CLOUDY    58  40  51 NW12G21   29.88F
$$

NEZ044-045-051>053-067-231900-
OMAHA AREA

CITY           SKY/WX    TMP DP  RH WIND       PRES   REMARKS
OMAHA EPPLEY   CLOUDY    58  44  60 NW13      29.86F
6HR MIN TEMP:  50; 6HR MAX TEMP:  60; 6HR PCP: TRACE;

BLAIR          CLOUDY    56  44  63 NW10G18   29.86F
FREMONT        DRIZZLE   54  45  71 NW21      29.90S
OFFUTT AFB     CLOUDY    57  45  64 NW13      29.87F
WAHOO          MOCLDY    59  45  58 NW9G16    29.88F
$$



USA.gov is the U.S. government's official web portal to all federal, state and local government web resources and services.